"startDT [UTC]","vpos","CH4 [ppm]","stdev(CH4) [ppm]","CO2 [ppm]","stdev(CO2) [ppm]","H2O [ppm]","stdev(H2O)","p_LGR [torr]","T_LGR [C]","mt1_LGR [us]","mt2_LGR [us]","T_ECpre [C]","T_EC1 [C]","T_EC2 [C]","p_inlet [hPa]","p_in [hPa]","p_out [hPa]","T_inlet [C]","RH_inlet [%]","dwpt_inlet [C]","T_vent [C]","RH_vent [%]","dwpt_vent [C]","flow_vent [l min-1]","flow_inlet [l min-1]","dwpt_sample [C]","T_room [C]"
2012-03-27 00:00:00,0.0,1.9524,0.0010,401.35,0.20,-1.0,0.0,138.11,28.53,24.61,36.32,0.04,-272.73,-272.74,-49,559,-927,22.3,1.0,-36.6,22.5,1.0,-35.9,5.73,2.27,-32.7,27.8
2012-03-27 00:01:00,0.0,1.9531,0.0010,401.65,0.21,-0.9,0.7,138.11,28.54,24.61,36.32,0.04,-272.74,-272.73,-50,559,-927,22.3,1.0,-36.6,22.5,1.0,-35.9,5.73,2.47,-32.7,27.8
2012-03-27 00:02:00,0.0,1.9528,0.0010,401.63,0.19,-1.0,0.0,138.11,28.54,24.61,36.32,0.04,-272.74,-272.74,-49,560,-927,22.3,1.0,-36.6,22.5,1.0,-36.0,5.73,2.32,-32.7,27.9
2012-03-27 00:03:00,0.0,1.9530,0.0010,401.65,0.20,-1.0,0.0,138.11,28.55,24.61,36.33,0.04,-272.73,-272.74,-50,560,-927,22.3,1.0,-36.3,22.5,1.0,-35.9,5.73,2.38,-32.6,27.9
2012-03-27 00:04:00,0.0,1.9532,0.0009,401.72,0.21,-1.0,0.0,138.11,28.56,24.61,36.32,0.04,-272.73,-272.73,-49,560,-927,22.4,1.0,-36.3,22.6,1.0,-35.9,5.73,2.43,-32.6,27.9
2012-03-27 00:05:00,0.0,1.9533,0.0009,401.79,0.23,-1.0,0.0,138.11,28.56,24.61,36.33,0.04,-272.74,-272.74,-50,559,-927,22.4,1.0,-36.5,22.6,1.0,-35.9,5.73,2.27,-32.6,28.0
2012-03-27 00:06:00,0.0,1.9533,0.0010,401.78,0.21,-1.0,0.0,138.11,28.57,24.61,36.33,0.04,-272.73,-272.74,-49,560,-927,22.4,1.0,-36.3,22.6,1.0,-35.8,5.73,2.47,-32.6,28.0
2012-03-27 00:07:00,0.0,1.9534,0.0008,401.81,0.20,-1.0,0.0,138.10,28.58,24.61,36.33,0.04,-272.74,-272.74,-50,560,-927,22.4,1.1,-35.9,22.6,1.1,-35.3,5.73,2.32,-32.6,28.0
2012-03-27 00:08:00,0.0,1.9529,0.0010,401.84,0.20,-1.0,0.0,138.10,28.58,24.61,36.32,0.04,-272.73,-272.73,-49,560,-927,22.4,1.0,-36.4,22.6,1.0,-35.8,5.73,2.37,-32.5,28.0
2012-03-27 00:09:00,0.0,1.9527,0.0009,401.88,0.19,-1.0,0.0,138.10,28.59,24.61,36.32,0.04,-272.74,-272.74,-49,560,-927,22.4,1.0,-36.5,22.7,1.0,-35.9,5.73,2.44,-32.5,28.0
2012-03-27 00:10:00,0.0,1.9531,0.0011,401.84,0.17,-1.0,0.0,138.10,28.60,24.61,36.33,0.04,-272.73,-272.73,-49,560,-927,22.4,1.0,-36.5,22.7,1.0,-35.8,5.73,2.28,-32.5,28.0
2012-03-27 00:11:00,0.0,1.9531,0.0009,401.85,0.18,-1.0,0.0,138.10,28.60,24.61,36.33,0.04,-272.73,-272.74,-49,560,-927,22.5,1.0,-36.0,22.7,1.1,-35.5,5.73,2.46,-32.5,28.1
2012-03-27 00:12:00,0.0,1.9530,0.0009,401.85,0.19,-1.0,0.0,138.10,28.61,24.61,36.33,0.04,-272.74,-272.74,-50,560,-927,22.5,1.0,-36.2,22.7,1.1,-35.6,5.73,2.33,-32.5,28.1
2012-03-27 00:13:00,0.0,1.9533,0.0009,402.01,0.16,-1.0,0.0,138.10,28.62,24.61,36.32,0.04,-272.73,-272.73,-49,561,-927,22.5,1.0,-36.4,22.7,1.0,-35.9,5.73,2.35,-32.4,28.2
2012-03-27 00:14:00,0.0,1.9527,0.0009,401.98,0.17,-1.0,0.0,138.10,28.63,24.61,36.33,0.04,-272.73,-272.74,-50,560,-927,22.5,1.0,-36.4,22.7,1.0,-35.8,5.73,2.46,-32.4,28.2
2012-03-27 00:15:00,0.0,1.9530,0.0009,401.98,0.21,-1.0,0.0,138.10,28.64,24.61,36.33,0.04,-272.74,-272.74,-49,560,-927,22.5,1.0,-36.1,22.8,1.0,-35.8,5.73,2.28,-32.4,28.3
2012-03-27 00:16:00,0.0,1.9533,0.0010,401.85,0.18,-1.0,0.0,138.10,28.65,24.61,36.33,0.04,-272.74,-272.74,-50,561,-927,22.6,1.0,-36.2,22.8,1.0,-35.7,5.73,2.41,-32.4,28.3
2012-03-27 00:17:00,0.0,1.9532,0.0008,401.87,0.19,-1.0,0.0,138.10,28.66,24.61,36.33,0.04,-272.74,-272.74,-49,561,-927,22.6,1.0,-36.2,22.8,1.1,-35.5,5.73,2.42,-32.3,28.3
2012-03-27 00:18:00,0.0,1.9542,0.0010,401.80,0.19,-1.0,0.0,138.10,28.67,24.61,36.34,0.04,-272.74,-272.74,-49,561,-927,22.6,1.0,-36.1,22.8,1.1,-35.6,5.73,2.28,-32.3,28.4
2012-03-27 00:19:00,0.0,1.9544,0.0009,401.92,0.21,-1.0,0.0,138.10,28.68,24.61,36.33,0.04,-272.74,-272.74,-50,561,-927,22.7,1.0,-36.1,22.8,1.1,-35.5,5.73,2.47,-32.3,28.5
2012-03-27 00:20:00,0.0,1.9535,0.0009,401.70,0.21,-1.0,0.0,138.10,28.69,24.61,36.34,0.04,-272.73,-272.73,-49,561,-927,22.7,1.0,-36.1,22.9,1.1,-35.5,5.73,2.30,-32.3,28.5
2012-03-27 00:21:00,0.0,1.9536,0.0008,401.79,0.18,-1.0,0.0,138.10,28.70,24.61,36.33,0.04,-272.73,-272.73,-50,561,-927,22.7,1.0,-36.1,22.9,1.1,-35.6,5.73,2.39,-32.2,28.5
2012-03-27 00:22:00,0.0,1.9541,0.0009,401.85,0.20,-1.0,0.0,138.10,28.70,24.61,36.33,0.04,-272.73,-272.74,-49,562,-927,22.7,1.0,-36.1,22.9,1.0,-35.8,5.73,2.41,-32.2,28.5
2012-03-27 00:23:00,0.0,1.9541,0.0010,401.81,0.24,-1.0,0.0,138.10,28.71,24.61,36.33,0.04,-272.73,-272.74,-50,562,-927,22.7,1.0,-36.1,22.9,1.0,-35.7,5.73,2.28,-32.2,28.5
2012-03-27 00:24:00,0.0,1.9536,0.0008,402.02,0.24,-1.0,0.0,138.10,28.72,24.61,36.33,0.04,-272.73,-272.73,-49,562,-927,22.7,1.0,-36.1,22.9,1.0,-35.6,5.73,2.47,-32.2,28.4
2012-03-27 00:25:00,0.0,1.9538,0.0009,402.31,0.23,-1.0,0.0,138.10,28.73,24.61,36.33,0.04,-272.74,-272.73,-50,562,-927,22.7,1.0,-36.1,22.9,1.1,-35.5,5.73,2.29,-32.3,27.7
2012-03-27 00:26:00,0.0,1.9534,0.0010,402.20,0.18,-1.0,0.0,138.10,28.73,24.61,36.34,0.04,-272.73,-272.74,-50,562,-927,22.7,1.0,-36.1,22.9,1.1,-35.6,5.73,2.36,-32.5,27.2
2012-03-27 00:27:00,0.0,1.9521,0.0009,402.17,0.19,-1.0,0.0,138.11,28.73,24.61,36.33,0.04,-272.74,-272.73,-50,562,-928,22.7,1.0,-36.1,22.8,1.1,-35.5,5.73,2.46,-32.7,26.7
2012-03-27 00:28:00,0.0,1.9518,0.0009,402.12,0.18,-1.0,0.0,138.12,28.72,24.61,36.33,0.04,-272.73,-272.74,-50,562,-928,22.6,1.0,-36.1,22.8,1.1,-35.5,5.73,2.42,-32.9,26.1
2012-03-27 00:29:00,0.0,1.9510,0.0008,402.23,0.24,-1.0,0.0,138.13,28.70,24.61,36.33,0.04,-272.74,-272.74,-50,562,-928,22.6,1.0,-36.2,22.7,1.1,-35.5,5.73,2.39,-33.1,25.7
2012-03-27 00:30:00,0.0,1.9512,0.0008,402.14,0.22,-1.0,0.0,138.13,28.68,24.61,36.33,0.04,-272.73,-272.73,-50,561,-928,22.6,1.0,-35.9,22.6,1.1,-35.6,5.73,2.38,-33.3,25.5
2012-03-27 00:31:00,0.0,1.9525,0.0011,402.24,0.20,-1.0,0.0,138.14,28.65,24.61,36.32,0.04,-272.73,-272.73,-50,561,-928,22.5,1.0,-35.9,22.5,1.1,-35.4,5.73,2.37,-33.5,25.3
2012-03-27 00:32:00,0.0,1.9502,0.0009,402.34,0.20,-1.0,0.0,138.15,28.62,24.61,36.32,0.04,-272.74,-272.73,-50,560,-928,22.4,1.0,-35.9,22.4,1.1,-35.5,5.73,2.37,-33.7,25.1
2012-03-27 00:33:00,0.0,1.9497,0.0007,402.36,0.20,-1.0,0.0,138.15,28.58,24.61,36.32,0.04,-272.74,-272.73,-50,560,-928,22.3,1.1,-35.8,22.4,1.1,-35.4,5.73,2.35,-33.9,25.1
2012-03-27 00:34:00,0.0,1.9494,0.0010,402.30,0.24,-1.0,0.0,138.15,28.55,24.61,36.32,0.04,-272.73,-272.73,-50,559,-927,22.3,1.1,-35.7,22.3,1.1,-35.3,5.73,2.30,-34.0,25.7
2012-03-27 00:35:00,0.0,1.9492,0.0008,402.34,0.20,-1.0,0.0,138.15,28.52,24.61,36.31,0.04,-272.73,-272.73,-51,559,-927,22.3,1.1,-35.6,22.3,1.1,-35.2,5.73,2.48,-33.9,26.1
2012-03-27 00:36:00,0.0,1.9490,0.0008,402.15,0.19,-1.0,0.0,138.14,28.50,24.61,36.32,0.04,-272.73,-272.74,-51,559,-927,22.3,1.1,-35.5,22.3,1.1,-35.1,5.73,2.31,-33.8,26.3
2012-03-27 00:37:00,0.0,1.9493,0.0008,402.10,0.20,-1.0,0.0,138.14,28.49,24.61,36.32,0.04,-272.74,-272.73,-50,559,-927,22.3,1.1,-35.5,22.3,1.2,-35.0,5.73,2.45,-33.8,26.6
2012-03-27 00:38:00,0.0,1.9507,0.0011,402.10,0.20,-1.0,0.0,138.13,28.48,24.60,36.32,0.04,-272.73,-272.73,-51,559,-927,22.3,1.1,-35.4,22.4,1.2,-35.0,5.73,2.28,-33.7,26.7
2012-03-27 00:39:00,0.0,1.9506,0.0009,401.98,0.21,-1.0,0.0,138.13,28.48,24.61,36.32,0.04,-272.73,-272.74,-50,559,-927,22.3,1.1,-35.5,22.4,1.2,-34.9,5.73,2.48,-33.6,26.8
2012-03-27 00:40:00,0.0,1.9501,0.0010,401.91,0.22,-1.0,0.0,138.13,28.48,24.60,36.33,0.04,-272.73,-272.73,-51,559,-926,22.3,1.1,-35.1,22.4,1.2,-34.6,5.73,2.28,-33.5,26.9
2012-03-27 00:41:00,0.0,1.9503,0.0009,401.96,0.15,-1.0,0.0,138.12,28.48,24.60,36.32,0.04,-272.73,-272.73,-50,559,-926,22.4,1.1,-35.1,22.4,1.2,-34.9,5.73,2.44,-33.4,27.0
2012-03-27 00:42:00,0.0,1.9501,0.0010,401.96,0.19,-1.0,0.0,138.12,28.49,24.61,36.32,0.04,-272.73,-272.74,-50,559,-927,22.4,1.1,-35.1,22.5,1.2,-34.7,5.73,2.37,-33.3,27.1
2012-03-27 00:43:00,0.0,1.9499,0.0009,401.94,0.16,-1.0,0.0,138.12,28.49,24.61,36.32,0.04,-272.73,-272.73,-50,558,-927,22.4,1.1,-35.1,22.5,1.2,-34.7,5.73,2.32,-33.3,27.1
2012-03-27 00:44:00,0.0,1.9500,0.0009,401.97,0.19,-1.0,0.0,138.12,28.50,24.61,36.32,0.04,-272.73,-272.74,-50,559,-927,22.4,1.2,-34.7,22.5,1.2,-34.3,5.73,2.47,-33.2,27.2
2012-03-27 00:45:00,0.0,1.9505,0.0008,402.10,0.21,-1.0,0.0,138.11,28.51,24.61,36.32,0.04,-272.73,-272.73,-50,558,-927,22.4,1.2,-34.8,22.5,1.2,-34.2,5.73,2.28,-33.1,27.3
2012-03-27 00:46:00,0.0,1.9511,0.0010,401.88,0.22,-1.0,0.0,138.11,28.52,24.61,36.33,0.04,-272.73,-272.73,-51,557,-926,22.4,1.2,-34.7,22.5,1.2,-34.3,5.73,2.43,-33.1,27.3
2012-03-27 00:47:00,0.0,1.9528,0.0010,401.82,0.21,-1.0,0.0,138.11,28.53,24.61,36.33,0.04,-272.74,-272.73,-53,556,-926,22.5,1.3,-34.0,22.6,1.3,-33.6,5.73,2.38,-33.0,27.4
2012-03-27 00:48:00,0.0,1.9538,0.0012,401.81,0.24,-1.0,0.0,138.11,28.54,24.61,36.32,0.04,-272.73,-272.73,-50,561,-926,22.5,1.2,-34.3,22.6,1.3,-33.9,5.73,2.30,-33.0,27.4
2012-03-27 00:49:00,0.0,1.9541,0.0008,401.69,0.23,-1.0,0.0,138.11,28.55,24.61,36.33,0.04,-272.74,-272.74,-51,559,-927,22.5,1.2,-34.5,22.6,1.2,-34.1,5.73,2.48,-32.9,27.4
2012-03-27 00:50:00,0.0,1.9534,0.0008,401.67,0.20,-1.0,0.0,138.11,28.56,24.61,36.33,0.04,-272.74,-272.74,-50,559,-927,22.5,1.2,-34.6,22.6,1.2,-34.1,5.73,2.29,-32.8,27.5
2012-03-27 00:51:00,0.0,1.9532,0.0009,401.67,0.20,-1.0,0.0,138.11,28.57,24.61,36.33,0.04,-272.72,-272.73,-50,559,-926,22.5,1.2,-34.3,22.6,1.3,-33.8,5.73,2.41,-32.7,27.5
2012-03-27 00:52:00,0.0,1.9536,0.0011,401.71,0.20,-1.0,0.0,138.10,28.58,24.61,36.32,0.04,-272.73,-272.74,-50,559,-927,22.6,1.2,-34.3,22.7,1.3,-33.8,5.73,2.41,-32.7,27.6
2012-03-27 00:53:00,0.0,1.9537,0.0009,401.65,0.17,-1.0,0.0,138.10,28.59,24.61,36.33,0.04,-272.73,-272.74,-50,559,-927,22.6,1.2,-34.4,22.7,1.3,-33.8,5.73,2.29,-32.7,27.6
2012-03-27 00:54:00,0.0,1.9537,0.0009,401.64,0.20,-1.0,0.0,138.10,28.60,24.61,36.33,0.04,-272.73,-272.74,-50,559,-927,22.6,1.2,-34.3,22.7,1.3,-33.8,5.73,2.47,-32.6,27.7
2012-03-27 00:55:00,0.0,1.9537,0.0008,401.65,0.20,-1.0,0.0,138.10,28.61,24.61,36.33,0.04,-272.74,-272.73,-50,559,-926,22.7,1.2,-34.4,22.8,1.3,-33.8,5.73,2.31,-32.5,27.7
2012-03-27 00:56:00,0.0,1.9538,0.0009,401.65,0.16,-1.0,0.0,138.10,28.62,24.61,36.33,0.04,-272.74,-272.74,-50,559,-928,22.7,1.2,-34.2,22.8,1.3,-33.8,5.73,2.37,-32.5,27.8
2012-03-27 00:57:00,0.0,1.9538,0.0009,401.77,0.19,-1.0,0.0,138.10,28.63,24.61,36.33,0.04,-272.73,-272.74,-50,559,-927,22.7,1.2,-34.3,22.8,1.3,-33.8,5.73,2.44,-32.5,27.8
2012-03-27 00:58:00,0.0,1.9545,0.0010,401.77,0.20,-1.0,0.0,138.10,28.65,24.61,36.33,0.04,-272.73,-272.74,-50,559,-927,22.7,1.2,-34.0,22.8,1.3,-33.7,5.73,2.28,-32.4,27.9
2012-03-27 00:59:00,0.0,1.9543,0.0009,401.76,0.26,-1.0,0.0,138.10,28.66,24.61,36.33,0.04,-272.74,-272.73,-50,559,-927,22.8,1.2,-34.0,22.9,1.3,-33.5,5.73,2.42,-32.4,27.9
2012-03-27 01:00:00,0.0,1.9548,0.0008,401.83,0.20,-1.0,0.0,138.10,28.67,24.61,36.33,0.04,-272.73,-272.73,-50,560,-927,22.8,1.2,-34.0,22.9,1.3,-33.5,5.73,2.39,-32.3,28.0
2012-03-27 01:01:00,0.0,1.9549,0.0010,401.78,0.17,-1.0,0.0,138.10,28.68,24.61,36.33,0.04,-272.73,-272.73,-50,560,-927,22.9,1.2,-34.0,22.9,1.3,-33.4,5.73,2.29,-32.3,28.0
2012-03-27 01:02:00,0.0,1.9551,0.0008,401.66,0.19,-1.0,0.0,138.09,28.69,24.61,36.33,0.04,-272.74,-272.73,-50,560,-927,22.9,1.2,-33.9,22.9,1.3,-33.5,5.73,2.46,-32.2,28.1
2012-03-27 01:03:00,0.0,1.9554,0.0009,401.79,0.18,-1.0,0.0,138.09,28.70,24.61,36.34,0.04,-272.73,-272.74,-50,560,-927,22.9,1.2,-33.9,23.0,1.3,-33.3,5.73,2.29,-32.2,28.1
2012-03-27 01:04:00,0.0,1.9553,0.0009,401.74,0.19,-1.0,0.0,138.09,28.71,24.61,36.34,0.04,-272.73,-272.74,-50,560,-927,22.9,1.3,-33.6,23.0,1.3,-33.2,5.73,2.44,-32.1,28.1
2012-03-27 01:05:00,0.0,1.9555,0.0008,401.65,0.17,-1.0,0.0,138.09,28.73,24.61,36.33,0.04,-272.73,-272.73,-50,560,-927,23.0,1.3,-33.7,23.1,1.3,-33.2,5.73,2.28,-32.1,28.0
2012-03-27 01:06:00,0.0,1.9559,0.0009,401.54,0.16,-1.0,0.0,138.10,28.74,24.61,36.33,0.04,-272.74,-272.74,-51,561,-927,23.0,1.2,-34.0,23.1,1.3,-33.3,5.73,2.49,-32.2,27.3
2012-03-27 01:07:00,0.0,1.9552,0.0009,401.51,0.19,-1.0,0.0,138.10,28.74,24.61,36.33,0.04,-272.73,-272.73,-50,561,-927,23.0,1.2,-33.9,23.0,1.3,-33.5,5.73,2.31,-32.3,26.6
2012-03-27 01:08:00,0.0,1.9547,0.0008,401.50,0.18,-1.0,0.0,138.11,28.73,24.61,36.33,0.04,-272.73,-272.73,-50,561,-928,22.9,1.2,-33.9,23.0,1.3,-33.5,5.73,2.31,-32.5,26.2
2012-03-27 01:09:00,0.0,1.9540,0.0009,401.61,0.15,-1.0,0.0,138.12,28.72,24.61,36.32,0.04,-272.73,-272.74,-51,561,-928,22.9,1.2,-34.0,22.9,1.3,-33.5,5.73,2.39,-32.7,25.9
2012-03-27 01:10:00,0.0,1.9538,0.0008,401.59,0.22,-1.0,0.0,138.12,28.71,24.61,36.32,0.04,-272.74,-272.73,-51,561,-928,22.8,1.2,-34.0,22.8,1.3,-33.6,5.73,2.42,-32.9,25.8
2012-03-27 01:11:00,0.0,1.9529,0.0009,401.78,0.16,-1.0,0.0,138.13,28.69,24.61,36.32,0.04,-272.74,-272.73,-51,561,-928,22.8,1.2,-34.0,22.7,1.3,-33.6,5.73,2.43,-33.0,25.5
2012-03-27 01:12:00,0.0,1.9534,0.0010,401.75,0.21,-1.0,0.0,138.14,28.66,24.61,36.33,0.04,-272.74,-272.73,-51,560,-928,22.7,1.2,-34.1,22.7,1.3,-33.7,5.73,2.41,-33.2,25.3
2012-03-27 01:13:00,0.0,1.9533,0.0011,401.78,0.24,-1.0,0.0,138.14,28.63,24.61,36.33,0.04,-272.73,-272.74,-51,560,-928,22.6,1.2,-34.1,22.6,1.3,-33.7,5.73,2.40,-33.3,25.0
2012-03-27 01:14:00,0.0,1.9527,0.0010,401.88,0.20,-1.0,0.0,138.15,28.60,24.61,36.32,0.04,-272.73,-272.73,-51,560,-927,22.6,1.3,-33.9,22.5,1.3,-33.6,5.73,2.38,-33.4,25.0
2012-03-27 01:15:00,0.0,1.9527,0.0009,401.63,0.17,-1.0,0.0,138.15,28.57,24.61,36.33,0.04,-272.74,-272.73,-51,559,-927,22.5,1.3,-33.8,22.5,1.3,-33.4,5.73,2.32,-33.5,25.5
2012-03-27 01:16:00,0.0,1.9529,0.0008,401.55,0.19,-1.0,0.0,138.14,28.54,24.60,36.33,0.04,-272.73,-272.74,-51,559,-927,22.5,1.3,-33.7,22.4,1.3,-33.4,5.73,2.30,-33.5,26.0
2012-03-27 01:17:00,0.0,1.9530,0.0010,401.58,0.18,-1.0,0.0,138.14,28.52,24.61,36.32,0.04,-272.73,-272.74,-51,560,-927,22.5,1.3,-33.6,22.5,1.4,-33.2,5.73,2.48,-33.4,26.3
2012-03-27 01:18:00,0.0,1.9522,0.0010,401.46,0.18,-1.0,0.0,138.14,28.51,24.61,36.32,0.04,-272.73,-272.74,-53,558,-926,22.6,1.3,-33.5,22.5,1.4,-33.1,5.73,2.28,-33.3,26.5
2012-03-27 01:19:00,0.0,1.9520,0.0009,401.27,0.23,-1.0,0.0,138.13,28.51,24.61,36.33,0.04,-272.74,-272.74,-51,558,-927,22.6,1.3,-33.4,22.5,1.4,-33.1,5.73,2.44,-33.2,26.7
2012-03-27 01:20:00,0.0,1.9519,0.0008,401.33,0.16,-1.0,0.0,138.13,28.51,24.61,36.32,0.04,-272.74,-272.74,-51,558,-927,22.6,1.3,-33.6,22.5,1.4,-33.1,5.73,2.37,-33.1,26.8
2012-03-27 01:21:00,0.0,1.9519,0.0011,401.30,0.21,-1.0,0.0,138.12,28.51,24.61,36.32,0.04,-272.74,-272.74,-51,556,-927,22.6,1.3,-33.6,22.6,1.4,-33.1,5.73,2.32,-33.0,26.9
2012-03-27 01:22:00,0.0,1.9520,0.0010,401.35,0.23,-1.0,0.0,138.12,28.52,24.61,36.32,0.04,-272.73,-272.74,-49,558,-929,22.6,1.3,-33.7,22.6,1.4,-33.1,5.73,2.47,-32.9,27.0
2012-03-27 01:23:00,0.0,1.9514,0.0009,401.32,0.17,-1.0,0.0,138.12,28.52,24.61,36.33,0.04,-272.74,-272.73,-50,558,-926,22.6,1.3,-33.6,22.6,1.4,-33.0,5.73,2.29,-32.8,27.1
2012-03-27 01:24:00,0.0,1.9514,0.0009,401.29,0.20,-1.0,0.0,138.11,28.53,24.61,36.33,0.04,-272.74,-272.73,-51,559,-927,22.6,1.3,-33.6,22.7,1.4,-33.0,5.73,2.40,-32.7,27.2
2012-03-27 01:25:00,0.0,1.9519,0.0010,401.23,0.22,-1.0,0.0,138.11,28.54,24.61,36.33,0.04,-272.73,-272.73,-51,558,-927,22.7,1.3,-33.6,22.7,1.4,-33.0,5.73,2.42,-32.7,27.3
2012-03-27 01:26:00,0.0,1.9521,0.0009,401.32,0.20,-1.0,0.0,138.11,28.55,24.61,36.33,0.04,-272.74,-272.74,-51,559,-927,22.7,1.3,-33.6,22.7,1.3,-33.2,5.73,2.28,-32.6,27.3
2012-03-27 01:27:00,0.0,1.9519,0.0010,401.35,0.18,-1.0,0.0,138.11,28.56,24.61,36.33,0.04,-272.74,-272.74,-51,559,-929,22.7,1.3,-33.6,22.7,1.3,-33.2,5.73,2.46,-32.5,27.4
2012-03-27 01:28:00,0.0,1.9525,0.0009,401.38,0.17,-1.0,0.0,138.11,28.57,24.61,36.33,0.04,-272.73,-272.73,-48,560,-930,22.7,1.3,-33.5,22.8,1.3,-33.2,5.73,2.35,-32.4,27.5
2012-03-27 01:29:00,0.0,1.9526,0.0010,401.49,0.19,-1.0,0.0,138.10,28.58,24.61,36.33,0.04,-272.73,-272.74,-51,559,-927,22.7,1.3,-33.6,22.8,1.4,-33.0,5.73,2.32,-32.4,27.5
2012-03-27 01:30:00,0.0,1.9532,0.0009,401.46,0.17,-1.0,0.0,138.10,28.60,24.61,36.33,0.04,-272.73,-272.73,-51,559,-927,22.8,1.3,-33.5,22.8,1.4,-32.9,5.73,2.46,-32.3,27.6
2012-03-27 01:31:00,0.0,1.9537,0.0008,401.53,0.14,-1.0,0.0,138.10,28.61,24.61,36.33,0.04,-272.73,-272.73,-51,559,-927,22.8,1.3,-33.3,22.8,1.4,-32.9,5.73,2.29,-32.2,27.7
2012-03-27 01:32:00,0.0,1.9533,0.0008,401.54,0.21,-1.0,0.0,138.10,28.62,24.61,36.33,0.04,-272.73,-272.74,-51,559,-926,22.8,1.3,-33.3,22.9,1.4,-32.9,5.73,2.39,-32.2,27.7
2012-03-27 01:33:00,0.0,1.9527,0.0010,401.67,0.18,-1.0,0.0,138.10,28.64,24.61,36.33,0.04,-272.74,-272.74,-50,559,-927,22.9,1.3,-33.2,22.9,1.4,-32.9,5.73,2.43,-32.1,27.8
2012-03-27 01:34:00,0.0,1.9534,0.0010,401.58,0.19,-1.0,0.0,138.10,28.65,24.61,36.33,0.04,-272.73,-272.74,-51,559,-928,22.9,1.3,-33.3,22.9,1.4,-32.8,5.73,2.27,-32.1,27.8
2012-03-27 01:35:00,0.0,1.9540,0.0008,401.57,0.21,-1.0,0.0,138.10,28.66,24.61,36.33,0.04,-272.73,-272.74,-50,559,-927,22.9,1.3,-33.4,23.0,1.4,-32.9,5.73,2.44,-32.0,27.9
2012-03-27 01:36:00,0.0,1.9534,0.0010,401.59,0.26,-1.0,0.0,138.10,28.68,24.61,36.34,0.04,-272.74,-272.73,-51,560,-927,23.0,1.3,-33.4,23.0,1.3,-33.0,5.73,2.37,-31.9,27.9
2012-03-27 01:37:00,0.0,1.9530,0.0010,401.89,0.20,-0.9,0.6,138.09,28.69,24.61,36.34,0.04,-272.73,-272.73,-50,559,-927,23.0,1.3,-33.3,23.0,1.4,-32.8,5.73,2.30,-31.9,28.0
2012-03-27 01:38:00,0.0,1.9536,0.0010,401.96,0.20,-1.0,0.0,138.09,28.71,24.61,36.33,0.04,-272.73,-272.73,-51,559,-927,23.0,1.3,-33.2,23.1,1.4,-32.8,5.73,2.46,-31.8,28.0
2012-03-27 01:39:00,0.0,1.9537,0.0010,401.80,0.19,-1.0,0.0,138.09,28.72,24.62,36.34,0.04,-272.73,-272.73,-50,560,-927,23.1,1.3,-33.2,23.1,1.4,-32.8,5.73,2.27,-31.8,28.1
2012-03-27 01:40:00,0.0,1.9548,0.0008,401.66,0.20,-1.0,0.0,138.09,28.73,24.61,36.33,0.04,-272.74,-272.74,-51,560,-927,23.1,1.3,-33.1,23.1,1.4,-32.7,5.73,2.45,-31.8,27.4
2012-03-27 01:41:00,0.0,1.9537,0.0010,401.91,0.23,-1.0,0.0,138.10,28.74,24.61,36.33,0.04,-272.73,-272.73,-51,560,-927,23.1,1.3,-33.2,23.1,1.4,-32.6,5.73,2.37,-31.9,26.8
2012-03-27 01:42:00,0.0,1.9529,0.0009,401.81,0.18,-0.5,3.9,138.11,28.74,24.61,36.33,0.04,-272.73,-272.73,-51,561,-928,23.1,1.3,-33.1,23.0,1.4,-32.6,5.73,2.29,-32.0,26.4
2012-03-27 01:43:00,0.0,1.9525,0.0009,401.80,0.21,-1.0,0.0,138.11,28.73,24.61,36.32,0.04,-272.74,-272.73,-51,561,-928,23.0,1.3,-33.0,23.0,1.4,-32.6,5.73,2.38,-32.2,26.0
2012-03-27 01:44:00,0.0,1.9527,0.0009,401.64,0.18,-1.0,0.0,138.12,28.72,24.61,36.33,0.04,-272.74,-272.74,-51,560,-928,22.9,1.3,-33.1,22.9,1.4,-32.5,5.73,2.43,-32.3,25.8
2012-03-27 01:45:00,0.0,1.9525,0.0009,401.65,0.26,-1.0,0.0,138.12,28.70,24.61,36.33,0.04,-272.74,-272.73,-51,560,-928,22.9,1.3,-33.1,22.8,1.4,-32.5,5.73,2.44,-32.5,25.7
2012-03-27 01:46:00,0.0,1.9522,0.0010,401.87,0.24,-1.0,0.0,138.13,28.68,24.61,36.32,0.04,-272.73,-272.73,-51,560,-928,22.9,1.4,-33.0,22.8,1.4,-32.5,5.73,2.40,-32.7,25.5
2012-03-27 01:47:00,0.0,1.9526,0.0010,401.96,0.19,-1.0,0.0,138.14,28.65,24.61,36.32,0.04,-272.73,-272.74,-51,560,-928,22.8,1.4,-32.8,22.7,1.4,-32.5,5.73,2.38,-32.8,25.3
2012-03-27 01:48:00,0.0,1.9543,0.0013,401.69,0.24,-1.0,0.0,138.14,28.63,24.61,36.32,0.04,-272.74,-272.73,-51,560,-928,22.7,1.4,-32.8,22.7,1.5,-32.3,5.73,2.36,-32.9,25.1
2012-03-27 01:49:00,0.0,1.9535,0.0009,401.84,0.27,-1.0,0.0,138.15,28.60,24.61,36.32,0.04,-272.74,-272.73,-51,559,-928,22.7,1.4,-32.6,22.6,1.5,-32.2,5.73,2.33,-33.0,25.2
2012-03-27 01:50:00,0.0,1.9529,0.0009,401.83,0.20,-1.0,0.0,138.15,28.57,24.61,36.32,0.04,-272.74,-272.74,-52,559,-928,22.6,1.5,-32.4,22.5,1.5,-32.1,5.73,2.30,-33.1,25.7
2012-03-27 01:51:00,0.0,1.9525,0.0009,401.79,0.18,-1.0,0.0,138.14,28.55,24.61,36.32,0.04,-272.74,-272.74,-53,560,-926,22.6,1.5,-32.3,22.5,1.5,-31.9,5.73,2.49,-33.0,26.1
2012-03-27 01:52:00,0.0,1.9528,0.0011,401.69,0.20,-1.0,0.0,138.14,28.54,24.61,36.32,0.04,-272.73,-272.73,-52,559,-928,22.6,1.5,-32.2,22.5,1.5,-31.9,5.73,2.26,-32.9,26.4
2012-03-27 01:53:00,0.0,1.9523,0.0009,401.53,0.23,-1.0,0.0,138.13,28.53,24.61,36.33,0.04,-272.74,-272.74,-51,559,-927,22.7,1.5,-32.2,22.6,1.5,-31.9,5.73,2.48,-32.8,26.6
2012-03-27 01:54:00,0.0,1.9521,0.0008,401.58,0.19,-1.0,0.0,138.13,28.52,24.61,36.32,0.04,-272.73,-272.74,-52,559,-927,22.7,1.5,-32.2,22.6,1.5,-31.9,5.73,2.29,-32.7,26.8
2012-03-27 01:55:00,0.0,1.9520,0.0007,401.53,0.18,-1.0,0.0,138.12,28.52,24.61,36.32,0.04,-272.73,-272.74,-52,557,-927,22.7,1.5,-32.2,22.6,1.6,-31.7,5.73,2.41,-32.6,26.9
2012-03-27 01:56:00,0.0,1.9522,0.0009,401.15,0.15,-1.0,0.0,138.12,28.53,24.61,36.33,0.04,-272.73,-272.73,-53,559,-927,22.7,1.5,-32.2,22.7,1.6,-31.7,5.73,2.42,-32.5,27.0
2012-03-27 01:57:00,0.0,1.9519,0.0010,401.16,0.21,-1.0,0.0,138.12,28.53,24.61,36.32,0.04,-272.73,-272.74,-50,558,-928,22.7,1.5,-32.1,22.7,1.6,-31.6,5.73,2.28,-32.4,27.1
2012-03-27 01:58:00,0.0,1.9517,0.0009,401.11,0.20,-1.0,0.0,138.11,28.54,24.61,36.33,0.04,-272.74,-272.74,-51,559,-928,22.7,1.5,-32.1,22.7,1.5,-31.8,5.73,2.46,-32.3,27.2
2012-03-27 01:59:00,0.0,1.9515,0.0008,401.09,0.21,-1.0,0.0,138.11,28.56,24.61,36.33,0.04,-272.73,-272.73,-51,558,-926,22.7,1.5,-32.3,22.7,1.5,-31.7,5.73,2.34,-32.2,27.3
2012-03-27 02:00:00,0.0,1.9517,0.0009,401.13,0.15,-1.0,0.0,138.11,28.57,24.61,36.33,0.04,-272.74,-272.74,-51,559,-924,22.8,1.5,-32.3,22.8,1.5,-31.9,5.73,2.33,-32.2,27.4
2012-03-27 02:01:00,0.0,1.9523,0.0010,401.09,0.18,-1.0,0.0,138.11,28.58,24.61,36.33,0.04,-272.74,-272.73,-55,559,-926,22.8,1.4,-32.5,22.8,1.5,-31.9,5.73,2.47,-32.1,27.4
2012-03-27 02:02:00,0.0,1.9521,0.0008,401.14,0.20,-1.0,0.0,138.10,28.59,24.61,36.33,0.04,-272.74,-272.73,-50,559,-927,22.9,1.4,-32.5,22.8,1.5,-32.1,5.73,2.28,-32.0,27.5
2012-03-27 02:03:00,0.0,1.9526,0.0009,401.27,0.17,-1.0,0.0,138.10,28.61,24.61,36.33,0.04,-272.73,-272.74,-51,559,-927,22.9,1.4,-32.7,22.9,1.5,-32.2,5.73,2.41,-32.0,27.6
2012-03-27 02:04:00,0.0,1.9530,0.0009,401.19,0.20,-0.9,0.8,138.10,28.63,24.61,36.33,0.04,-272.74,-272.74,-51,559,-927,22.9,1.4,-32.7,22.9,1.5,-32.2,5.73,2.41,-31.9,27.7
2012-03-27 02:05:00,0.0,1.9538,0.0009,401.37,0.25,-1.0,0.0,138.10,28.64,24.61,36.33,0.04,-272.74,-272.73,-51,559,-927,22.9,1.4,-32.8,22.9,1.5,-32.2,5.73,2.28,-31.8,27.7
2012-03-27 02:06:00,0.0,1.9538,0.0010,401.28,0.20,-1.0,0.0,138.10,28.66,24.61,36.33,0.04,-272.73,-272.73,-51,559,-927,23.0,1.4,-32.8,22.9,1.5,-32.2,5.73,2.45,-31.7,27.8
2012-03-27 02:07:00,0.0,1.9524,0.0011,401.22,0.23,-0.3,3.8,138.10,28.67,24.61,36.33,0.04,-272.74,-272.74,-50,559,-927,23.0,1.4,-32.8,23.0,1.5,-32.2,5.73,2.34,-31.7,27.9
2012-03-27 02:08:00,0.0,1.9535,0.0009,401.28,0.22,-1.0,0.0,138.09,28.68,24.61,36.33,0.04,-272.73,-272.74,-51,559,-927,23.0,1.4,-32.7,23.0,1.4,-32.3,5.73,2.34,-31.6,27.9
2012-03-27 02:09:00,0.0,1.9549,0.0010,401.22,0.20,-1.0,0.0,138.09,28.70,24.61,36.33,0.04,-272.73,-272.73,-50,560,-927,23.1,1.4,-32.9,23.0,1.4,-32.4,5.73,2.41,-31.5,28.0
2012-03-27 02:10:00,0.0,1.9547,0.0007,401.30,0.21,-0.4,3.7,138.09,28.72,24.61,36.33,0.04,-272.73,-272.74,-50,559,-927,23.1,1.4,-32.7,23.1,1.4,-32.2,5.73,2.36,-31.5,27.9
2012-03-27 02:11:00,0.0,1.9553,0.0009,401.36,0.23,0.1,6.1,138.10,28.73,24.61,36.33,0.04,-272.73,-272.73,-51,560,-927,23.1,1.3,-32.9,23.1,1.4,-32.4,5.73,2.32,-31.5,27.0
2012-03-27 02:12:00,0.0,1.9554,0.0010,401.36,0.22,-1.0,0.3,138.10,28.74,24.61,36.33,0.04,-272.73,-272.73,-51,560,-927,23.1,1.4,-32.9,23.1,1.4,-32.4,5.73,2.48,-31.6,26.5
2012-03-27 02:13:00,0.0,1.9545,0.0009,401.28,0.22,-1.0,0.0,138.11,28.74,24.61,36.33,0.04,-272.73,-272.74,-51,560,-928,23.1,1.4,-32.9,23.0,1.4,-32.4,5.73,2.36,-31.7,26.3
2012-03-27 02:14:00,0.0,1.9535,0.0009,401.30,0.15,-0.5,3.6,138.12,28.73,24.61,36.33,0.04,-272.73,-272.74,-51,560,-928,23.0,1.4,-32.8,22.9,1.4,-32.4,5.73,2.30,-31.9,25.9
2012-03-27 02:15:00,0.0,1.9533,0.0007,401.30,0.23,-1.0,0.0,138.12,28.72,24.61,36.32,0.04,-272.73,-272.74,-51,560,-928,23.0,1.4,-32.9,22.9,1.4,-32.5,5.73,2.35,-32.0,25.7
2012-03-27 02:16:00,0.0,1.9525,0.0009,401.34,0.21,-1.0,0.0,138.13,28.70,24.61,36.32,0.04,-272.74,-272.74,-51,560,-928,22.9,1.3,-33.1,22.8,1.4,-32.5,5.73,2.40,-32.2,25.5
2012-03-27 02:17:00,0.0,1.9525,0.0009,401.33,0.19,-1.0,0.0,138.13,28.68,24.61,36.32,0.04,-272.73,-272.74,-51,560,-928,22.9,1.4,-32.9,22.8,1.4,-32.5,5.73,2.43,-32.3,25.3
2012-03-27 02:18:00,0.0,1.9526,0.0010,401.36,0.17,-1.0,0.0,138.14,28.66,24.61,36.32,0.04,-272.74,-272.74,-51,560,-928,22.8,1.4,-32.9,22.7,1.4,-32.6,5.73,2.43,-32.4,25.2